When you browse on this site, cookies collect data to enhance your experience and personalize the content and advertising you see.
Visit our Privacy Policy to learn more. By continuing to use the site, you agree to this use of cookies and data.
  • In Hungary
  • List of Countries
  • For 7 days
  • Water Temperature
  • Weather Map
  • News
  • Weather Widgets
  • user-avatar
    Login

    Hourly Weather Gredyakino

    Today, 21 October, Monday

    Time Temperature Precipitation Wind Pressure Humidity
    00:00 +12°C° 0 mm 3 mps 745 mmHg 94%
    01:00 +12°C° 0 mm 3 mps 745 mmHg 94%
    02:00 +12°C° 0 mm 3 mps 745 mmHg 95%
    03:00 +12°C° 0 mm 3 mps 745 mmHg 95%
    04:00 +11°C° 0 mm 3 mps 744 mmHg 95%
    05:00 +11°C° 0 mm 3 mps 744 mmHg 95%
    06:00 +11°C° 0 mm 3 mps 744 mmHg 94%
    07:00 +11°C° 0 mm 4 mps 744 mmHg 94%
    08:00 +12°C° 0 mm 4 mps 744 mmHg 91%
    09:00 +12°C° 0 mm 4 mps 744 mmHg 88%
    10:00 +13°C° 0 mm 4 mps 744 mmHg 85%
    11:00 +14°C° 0 mm 4 mps 744 mmHg 82%
    12:00 +14°C° 0 mm 4 mps 744 mmHg 83%
    13:00 +14°C° 0 mm 3 mps 745 mmHg 84%
    14:00 +14°C° 0 mm 3 mps 745 mmHg 84%
    15:00 +13°C° 0.6 mm 3 mps 745 mmHg 87%
    16:00 +13°C° 0.6 mm 2 mps 745 mmHg 90%
    17:00 +12°C° 0.6 mm 2 mps 746 mmHg 93%
    18:00 +12°C° 0.1 mm 2 mps 746 mmHg 94%
    19:00 +11°C° 0.1 mm 1 mps 746 mmHg 95%
    20:00 +10°C° 0.1 mm 1 mps 747 mmHg 96%
    21:00 +10°C° 0 mm 1 mps 747 mmHg 96%
    22:00 +9°C° 0 mm 1 mps 747 mmHg 97%
    23:00 +9°C° 0 mm 1 mps 747 mmHg 98%

    Tomorrow, 22 October, Tuesday

    Time Temperature Precipitation Wind Pressure Humidity
    00:00 +8°C° 0 mm 1 mps 747 mmHg 97%
    01:00 +8°C° 0 mm 1 mps 748 mmHg 97%
    02:00 +6°C° 0 mm 0 mps 748 mmHg 96%
    03:00 +6°C° 0 mm 0 mps 748 mmHg 96%
    04:00 +6°C° 0 mm 0 mps 748 mmHg 96%
    05:00 +5°C° 0 mm 0 mps 748 mmHg 96%
    06:00 +6°C° 0 mm 0 mps 748 mmHg 95%
    07:00 +7°C° 0 mm 1 mps 748 mmHg 94%
    08:00 +8°C° 0 mm 1 mps 749 mmHg 93%
    09:00 +9°C° 0 mm 1 mps 748 mmHg 89%
    10:00 +10°C° 0 mm 2 mps 748 mmHg 85%
    11:00 +12°C° 0 mm 2 mps 748 mmHg 80%
    12:00 +13°C° 0 mm 2 mps 748 mmHg 79%
    13:00 +12°C° 0 mm 3 mps 747 mmHg 79%
    14:00 +13°C° 0 mm 3 mps 747 mmHg 78%
    15:00 +13°C° 0.3 mm 3 mps 746 mmHg 82%
    16:00 +12°C° 0.3 mm 3 mps 746 mmHg 87%
    17:00 +12°C° 0.3 mm 4 mps 746 mmHg 91%
    18:00 +12°C° 0 mm 4 mps 746 mmHg 92%
    19:00 +12°C° 0 mm 4 mps 745 mmHg 93%
    20:00 +12°C° 0 mm 4 mps 745 mmHg 94%
    21:00 +12°C° 0 mm 4 mps 745 mmHg 94%
    22:00 +12°C° 0 mm 3 mps 745 mmHg 95%
    23:00 +11°C° 0 mm 3 mps 745 mmHg 95%

    Day after tomorrow, 23 October, Wednesday

    Time Temperature Precipitation Wind Pressure Humidity
    00:00 +11°C° 0 mm 3 mps 745 mmHg 95%
    01:00 +11°C° 0 mm 3 mps 745 mmHg 95%
    02:00 +11°C° 0 mm 3 mps 745 mmHg 95%
    03:00 +11°C° 0 mm 3 mps 745 mmHg 95%
    04:00 +11°C° 0 mm 3 mps 744 mmHg 94%
    05:00 +11°C° 0 mm 3 mps 744 mmHg 93%
    06:00 +11°C° 0 mm 3 mps 744 mmHg 93%
    07:00 +11°C° 0 mm 3 mps 744 mmHg 93%
    08:00 +11°C° 0 mm 3 mps 744 mmHg 93%
    09:00 +11°C° 0 mm 3 mps 744 mmHg 89%
    10:00 +12°C° 0 mm 3 mps 744 mmHg 84%
    11:00 +13°C° 0 mm 3 mps 744 mmHg 80%
    12:00 +13°C° 0 mm 3 mps 744 mmHg 77%
    13:00 +13°C° 0 mm 3 mps 744 mmHg 75%
    14:00 +14°C° 0 mm 3 mps 744 mmHg 73%
    15:00 +13°C° 0 mm 3 mps 744 mmHg 77%
    16:00 +13°C° 0 mm 2 mps 744 mmHg 82%
    17:00 +12°C° 0 mm 2 mps 744 mmHg 86%
    18:00 +12°C° 0 mm 2 mps 745 mmHg 87%
    19:00 +11°C° 0 mm 1 mps 745 mmHg 88%
    20:00 +11°C° 0 mm 1 mps 745 mmHg 88%
    21:00 +11°C° 0 mm 1 mps 745 mmHg 87%
    22:00 +11°C° 0 mm 1 mps 745 mmHg 85%
    23:00 +11°C° 0 mm 1 mps 746 mmHg 83%

    24 October, Thursday

    Time Temperature Precipitation Wind Pressure Humidity
    00:00 +11°C° 0 mm 1 mps 746 mmHg 83%
    01:00 +11°C° 0 mm 1 mps 746 mmHg 82%
    02:00 +11°C° 0 mm 1 mps 746 mmHg 81%
    03:00 +11°C° 0 mm 1 mps 746 mmHg 82%
    04:00 +10°C° 0 mm 1 mps 746 mmHg 82%
    05:00 +10°C° 0 mm 1 mps 746 mmHg 83%
    06:00 +10°C° 0 mm 1 mps 747 mmHg 86%
    07:00 +10°C° 0 mm 1 mps 747 mmHg 89%
    08:00 +9°C° 0 mm 2 mps 747 mmHg 91%
    09:00 +9°C° 0 mm 2 mps 747 mmHg 87%
    10:00 +10°C° 0 mm 2 mps 747 mmHg 82%
    11:00 +12°C° 0 mm 2 mps 747 mmHg 78%
    12:00 +12°C° 0 mm 2 mps 747 mmHg 76%
    13:00 +12°C° 0 mm 2 mps 747 mmHg 75%
    14:00 +13°C° 0 mm 2 mps 748 mmHg 73%
    15:00 +12°C° 0 mm 2 mps 748 mmHg 78%
    16:00 +9°C° 0 mm 2 mps 747 mmHg 83%
    17:00 +9°C° 0 mm 1 mps 747 mmHg 89%
    18:00 +9°C° 0 mm 1 mps 748 mmHg 91%
    19:00 +8°C° 0 mm 1 mps 748 mmHg 92%
    20:00 +8°C° 0 mm 1 mps 748 mmHg 94%
    21:00 +8°C° 0 mm 1 mps 748 mmHg 95%
    22:00 +7°C° 0 mm 1 mps 748 mmHg 96%
    23:00 +7°C° 0 mm 1 mps 748 mmHg 96%

    25 October, Friday

    Time Temperature Precipitation Wind Pressure Humidity
    00:00 +7°C° 0 mm 1 mps 748 mmHg 96%
    01:00 +7°C° 0 mm 1 mps 748 mmHg 96%
    02:00 +6°C° 0 mm 1 mps 749 mmHg 96%
    03:00 +6°C° 0 mm 1 mps 748 mmHg 96%
    04:00 +6°C° 0 mm 1 mps 748 mmHg 96%
    05:00 +6°C° 0 mm 1 mps 748 mmHg 96%
    06:00 +6°C° 0 mm 1 mps 748 mmHg 95%
    07:00 +7°C° 0 mm 1 mps 748 mmHg 95%
    08:00 +6°C° 0 mm 2 mps 748 mmHg 94%
    09:00 +7°C° 0 mm 2 mps 748 mmHg 88%
    10:00 +9°C° 0 mm 2 mps 748 mmHg 83%
    11:00 +10°C° 0 mm 2 mps 748 mmHg 77%
    12:00 +11°C° 0 mm 3 mps 748 mmHg 75%
    13:00 +11°C° 0 mm 3 mps 747 mmHg 73%
    14:00 +12°C° 0 mm 3 mps 747 mmHg 72%
    15:00 +11°C° 0 mm 4 mps 747 mmHg 76%
    16:00 +10°C° 0 mm 4 mps 746 mmHg 80%
    17:00 +8°C° 0 mm 4 mps 746 mmHg 84%
    18:00 +8°C° 0 mm 4 mps 745 mmHg 84%
    19:00 +8°C° 0 mm 4 mps 745 mmHg 85%
    20:00 +8°C° 0 mm 4 mps 745 mmHg 86%
    21:00 +8°C° 0 mm 4 mps 745 mmHg 87%
    22:00 +8°C° 0 mm 4 mps 745 mmHg 88%
    23:00 +8°C° 0 mm 4 mps 744 mmHg 90%

    26 October, Saturday

    Time Temperature Precipitation Wind Pressure Humidity
    00:00 +8°C° 0 mm 4 mps 744 mmHg 92%
    01:00 +8°C° 0 mm 4 mps 744 mmHg 93%
    02:00 +8°C° 0 mm 4 mps 744 mmHg 95%
    03:00 +10°C° 0 mm 4 mps 744 mmHg 94%
    04:00 +10°C° 0 mm 4 mps 744 mmHg 93%
    05:00 +10°C° 0 mm 4 mps 744 mmHg 92%
    06:00 +10°C° 0 mm 4 mps 744 mmHg 90%
    07:00 +11°C° 0 mm 4 mps 744 mmHg 87%
    08:00 +11°C° 0 mm 4 mps 745 mmHg 85%
    09:00 +11°C° 0 mm 4 mps 745 mmHg 81%
    10:00 +11°C° 0 mm 4 mps 745 mmHg 77%
    11:00 +10°C° 0 mm 5 mps 745 mmHg 73%
    12:00 +11°C° 0 mm 4 mps 745 mmHg 73%
    13:00 +11°C° 0 mm 4 mps 746 mmHg 72%
    14:00 +11°C° 0 mm 4 mps 746 mmHg 72%
    15:00 +10°C° 0 mm 3 mps 746 mmHg 76%
    16:00 +10°C° 0 mm 3 mps 746 mmHg 80%
    17:00 +9°C° 0 mm 2 mps 746 mmHg 84%
    18:00 +8°C° 0 mm 2 mps 746 mmHg 85%
    19:00 +8°C° 0 mm 2 mps 746 mmHg 87%
    20:00 +7°C° 0 mm 2 mps 746 mmHg 89%
    21:00 +7°C° 0 mm 2 mps 745 mmHg 89%
    22:00 +7°C° 0 mm 3 mps 745 mmHg 89%
    23:00 +7°C° 0 mm 3 mps 745 mmHg 89%

    27 October, Sunday

    Time Temperature Precipitation Wind Pressure Humidity
    00:00 +7°C° 0 mm 3 mps 745 mmHg 89%
    01:00 +7°C° 0 mm 3 mps 744 mmHg 90%
    02:00 +6°C° 0 mm 4 mps 744 mmHg 91%
    03:00 +6°C° 0 mm 4 mps 743 mmHg 91%
    04:00 +6°C° 0 mm 4 mps 743 mmHg 91%
    05:00 +6°C° 0 mm 4 mps 742 mmHg 91%
    06:00 +6°C° 0 mm 4 mps 742 mmHg 92%
    07:00 +7°C° 0 mm 5 mps 741 mmHg 92%
    08:00 +7°C° 0 mm 5 mps 741 mmHg 93%
    09:00 +9°C° 0 mm 5 mps 741 mmHg 88%
    10:00 +10°C° 0 mm 5 mps 740 mmHg 84%
    11:00 +11°C° 0 mm 6 mps 740 mmHg 80%
    12:00 +11°C° 0 mm 6 mps 739 mmHg 81%
    13:00 +12°C° 0 mm 5 mps 739 mmHg 82%
    14:00 +12°C° 0 mm 5 mps 738 mmHg 82%
    15:00 +12°C° 0.1 mm 5 mps 738 mmHg 84%
    16:00 +12°C° 0.1 mm 5 mps 738 mmHg 86%
    17:00 +12°C° 0.1 mm 5 mps 738 mmHg 87%
    18:00 +10°C° 0.6 mm 5 mps 738 mmHg 86%
    19:00 +10°C° 0.6 mm 5 mps 738 mmHg 85%
    20:00 +10°C° 0.6 mm 5 mps 737 mmHg 84%
    21:00 +9°C° 0.1 mm 5 mps 737 mmHg 81%
    22:00 +8°C° 0.1 mm 4 mps 738 mmHg 79%
    23:00 +6°C° 0.1 mm 4 mps 738 mmHg 76%
    Show more